When you browse on this site, cookies collect data to enhance your experience and personalize the content and advertising you see.
Visit our Privacy Policy to learn more. By continuing to use the site, you agree to this use of cookies and data.
  • In Hungary
  • List of Countries
  • For 7 days
  • Water Temperature
  • Weather Map
  • News
  • Weather Widgets
  • user-avatar
    Login

    Hourly Weather Poreby

    Today, 13 December, Friday

    Time Temperature Precipitation Wind Pressure Humidity
    00:00 -1°C° 0 mm 3 mps 739 mmHg 77%
    01:00 -1°C° 0 mm 3 mps 738 mmHg 81%
    02:00 -2°C° 0 mm 4 mps 737 mmHg 86%
    03:00 -1°C° 0 mm 4 mps 736 mmHg 90%
    04:00 -1°C° 0 mm 4 mps 735 mmHg 94%
    05:00 -1°C° 0 mm 4 mps 734 mmHg 94%
    06:00 -1°C° 0 mm 4 mps 734 mmHg 94%
    07:00 -1°C° 0 mm 4 mps 733 mmHg 94%
    08:00 0°C° 0 mm 4 mps 732 mmHg 91%
    09:00 0°C° 0 mm 5 mps 731 mmHg 88%
    10:00 +1°C° 0 mm 5 mps 730 mmHg 85%
    11:00 +1°C° 0 mm 5 mps 730 mmHg 82%
    12:00 +2°C° 0 mm 5 mps 729 mmHg 79%
    13:00 +2°C° 0 mm 5 mps 729 mmHg 76%
    14:00 +2°C° 0 mm 5 mps 728 mmHg 79%
    15:00 +1°C° 0 mm 5 mps 728 mmHg 82%
    16:00 0°C° 0 mm 5 mps 728 mmHg 85%
    17:00 0°C° 0 mm 5 mps 728 mmHg 86%
    18:00 -1°C° 0 mm 4 mps 729 mmHg 87%
    19:00 0°C° 0 mm 3 mps 729 mmHg 88%
    20:00 0°C° 0 mm 3 mps 729 mmHg 87%
    21:00 0°C° 0 mm 3 mps 730 mmHg 87%
    22:00 -1°C° 0 mm 4 mps 730 mmHg 86%
    23:00 -1°C° 0 mm 4 mps 731 mmHg 86%

    Tomorrow, 14 December, Saturday

    Time Temperature Precipitation Wind Pressure Humidity
    00:00 -1°C° 0 mm 4 mps 731 mmHg 86%
    01:00 -1°C° 0 mm 4 mps 732 mmHg 85%
    02:00 0°C° 0 mm 5 mps 732 mmHg 83%
    03:00 0°C° 0 mm 5 mps 732 mmHg 82%
    04:00 0°C° 0 mm 5 mps 732 mmHg 80%
    05:00 -1°C° 0 mm 6 mps 732 mmHg 80%
    06:00 -1°C° 0 mm 6 mps 733 mmHg 81%
    07:00 +1°C° 0 mm 6 mps 733 mmHg 81%
    08:00 +1°C° 0 mm 5 mps 733 mmHg 83%
    09:00 +1°C° 0 mm 5 mps 734 mmHg 84%
    10:00 +3°C° 0 mm 4 mps 734 mmHg 86%
    11:00 +2°C° 0 mm 5 mps 734 mmHg 79%
    12:00 +3°C° 0 mm 6 mps 734 mmHg 72%
    13:00 +3°C° 0 mm 7 mps 734 mmHg 65%
    14:00 +3°C° 0.3 mm 7 mps 735 mmHg 72%
    15:00 +3°C° 0.3 mm 7 mps 735 mmHg 79%
    16:00 +2°C° 0.3 mm 8 mps 735 mmHg 86%
    17:00 +3°C° 0.3 mm 7 mps 736 mmHg 80%
    18:00 +3°C° 0.3 mm 7 mps 737 mmHg 74%
    19:00 +3°C° 0.3 mm 7 mps 738 mmHg 67%
    20:00 +3°C° 0 mm 6 mps 738 mmHg 69%
    21:00 +2°C° 0 mm 5 mps 739 mmHg 71%
    22:00 +2°C° 0 mm 5 mps 740 mmHg 73%
    23:00 +2°C° 0.1 mm 5 mps 741 mmHg 76%

    Day after tomorrow, 15 December, Sunday

    Time Temperature Precipitation Wind Pressure Humidity
    00:00 +3°C° 0.1 mm 5 mps 741 mmHg 79%
    01:00 +3°C° 0.1 mm 5 mps 742 mmHg 81%
    02:00 +3°C° 0 mm 5 mps 742 mmHg 81%
    03:00 +3°C° 0 mm 5 mps 742 mmHg 81%
    04:00 +2°C° 0 mm 5 mps 742 mmHg 81%
    05:00 +2°C° 0 mm 5 mps 742 mmHg 81%
    06:00 +2°C° 0 mm 5 mps 743 mmHg 81%
    07:00 +2°C° 0 mm 5 mps 743 mmHg 80%
    08:00 +3°C° 0.5 mm 5 mps 742 mmHg 82%
    09:00 +4°C° 0.5 mm 6 mps 742 mmHg 85%
    10:00 +4°C° 0.5 mm 6 mps 742 mmHg 87%
    11:00 +5°C° 0.7 mm 7 mps 742 mmHg 83%
    12:00 +8°C° 0.7 mm 7 mps 742 mmHg 79%
    13:00 +9°C° 0.7 mm 8 mps 742 mmHg 74%
    14:00 +8°C° 0.3 mm 7 mps 743 mmHg 77%
    15:00 +8°C° 0.3 mm 6 mps 744 mmHg 80%
    16:00 +8°C° 0.3 mm 5 mps 745 mmHg 83%
    17:00 +7°C° 0 mm 5 mps 745 mmHg 82%
    18:00 +7°C° 0 mm 4 mps 746 mmHg 80%
    19:00 +6°C° 0 mm 4 mps 747 mmHg 79%
    20:00 +7°C° 0 mm 3 mps 747 mmHg 80%
    21:00 +5°C° 0 mm 3 mps 748 mmHg 82%
    22:00 +5°C° 0 mm 3 mps 749 mmHg 83%
    23:00 +6°C° 0 mm 2 mps 749 mmHg 83%

    16 December, Monday

    Time Temperature Precipitation Wind Pressure Humidity
    00:00 +5°C° 0 mm 2 mps 749 mmHg 84%
    01:00 +5°C° 0 mm 2 mps 749 mmHg 85%
    02:00 +5°C° 0 mm 2 mps 749 mmHg 86%
    03:00 +5°C° 0 mm 2 mps 749 mmHg 87%
    04:00 +4°C° 0 mm 3 mps 750 mmHg 88%
    05:00 +4°C° 0 mm 3 mps 750 mmHg 88%
    06:00 +4°C° 0 mm 3 mps 750 mmHg 88%
    07:00 +4°C° 0 mm 3 mps 750 mmHg 89%
    08:00 +5°C° 0 mm 3 mps 750 mmHg 85%
    09:00 +5°C° 0 mm 3 mps 750 mmHg 81%
    10:00 +7°C° 0 mm 3 mps 750 mmHg 77%
    11:00 +7°C° 0 mm 3 mps 750 mmHg 75%
    12:00 +8°C° 0 mm 3 mps 749 mmHg 73%
    13:00 +8°C° 0 mm 3 mps 749 mmHg 71%
    14:00 +8°C° 0 mm 3 mps 749 mmHg 74%
    15:00 +8°C° 0 mm 3 mps 749 mmHg 77%
    16:00 +7°C° 0 mm 3 mps 749 mmHg 80%
    17:00 +7°C° 0 mm 3 mps 749 mmHg 81%
    18:00 +7°C° 0 mm 3 mps 749 mmHg 82%
    19:00 +5°C° 0 mm 3 mps 749 mmHg 84%
    20:00 +5°C° 0 mm 3 mps 749 mmHg 85%
    21:00 +5°C° 0 mm 3 mps 749 mmHg 86%
    22:00 +5°C° 0 mm 2 mps 749 mmHg 87%
    23:00 +5°C° 0 mm 2 mps 748 mmHg 87%

    17 December, Tuesday

    Time Temperature Precipitation Wind Pressure Humidity
    00:00 +5°C° 0 mm 2 mps 748 mmHg 88%
    01:00 +5°C° 0 mm 2 mps 748 mmHg 89%
    02:00 +5°C° 0 mm 2 mps 748 mmHg 89%
    03:00 +4°C° 0 mm 3 mps 748 mmHg 90%
    04:00 +4°C° 0 mm 3 mps 748 mmHg 91%
    05:00 +4°C° 0 mm 3 mps 747 mmHg 91%
    06:00 +4°C° 0 mm 3 mps 747 mmHg 91%
    07:00 +4°C° 0 mm 3 mps 747 mmHg 91%
    08:00 +4°C° 0 mm 3 mps 747 mmHg 90%
    09:00 +5°C° 0 mm 3 mps 748 mmHg 89%
    10:00 +5°C° 0 mm 3 mps 748 mmHg 87%
    11:00 +7°C° 0 mm 3 mps 748 mmHg 85%
    12:00 +7°C° 0 mm 2 mps 747 mmHg 83%
    13:00 +8°C° 0 mm 2 mps 747 mmHg 80%
    14:00 +7°C° 0 mm 2 mps 747 mmHg 83%
    15:00 +7°C° 0 mm 2 mps 747 mmHg 85%
    16:00 +6°C° 0 mm 2 mps 747 mmHg 88%
    17:00 +6°C° 0 mm 2 mps 747 mmHg 88%
    18:00 +6°C° 0 mm 2 mps 747 mmHg 89%
    19:00 +6°C° 0 mm 2 mps 747 mmHg 90%
    20:00 +6°C° 0 mm 2 mps 747 mmHg 90%
    21:00 +5°C° 0 mm 2 mps 747 mmHg 90%
    22:00 +6°C° 0 mm 1 mps 747 mmHg 91%
    23:00 +6°C° 0 mm 1 mps 747 mmHg 91%

    18 December, Wednesday

    Time Temperature Precipitation Wind Pressure Humidity
    00:00 +6°C° 0 mm 1 mps 747 mmHg 91%
    01:00 +5°C° 0 mm 2 mps 747 mmHg 92%
    02:00 +6°C° 0 mm 1 mps 747 mmHg 91%
    03:00 +5°C° 0 mm 1 mps 747 mmHg 91%
    04:00 +5°C° 0 mm 1 mps 747 mmHg 91%
    05:00 +5°C° 0 mm 1 mps 747 mmHg 91%
    06:00 +5°C° 0 mm 1 mps 747 mmHg 91%
    07:00 +5°C° 0 mm 1 mps 747 mmHg 90%
    08:00 +5°C° 0 mm 1 mps 747 mmHg 89%
    09:00 +5°C° 0 mm 2 mps 748 mmHg 87%
    10:00 +5°C° 0 mm 2 mps 748 mmHg 85%
    11:00 +6°C° 0 mm 2 mps 748 mmHg 81%
    12:00 +7°C° 0 mm 2 mps 748 mmHg 77%
    13:00 +8°C° 0 mm 2 mps 747 mmHg 73%
    14:00 +8°C° 0 mm 2 mps 747 mmHg 76%
    15:00 +7°C° 0 mm 2 mps 748 mmHg 79%
    16:00 +7°C° 0 mm 2 mps 748 mmHg 83%
    17:00 +6°C° 0 mm 2 mps 748 mmHg 84%
    18:00 +6°C° 0 mm 2 mps 748 mmHg 85%
    19:00 +6°C° 0 mm 2 mps 748 mmHg 86%
    20:00 +6°C° 0 mm 2 mps 748 mmHg 86%
    21:00 +5°C° 0 mm 2 mps 748 mmHg 87%
    22:00 +5°C° 0 mm 2 mps 749 mmHg 87%
    23:00 +5°C° 0 mm 2 mps 749 mmHg 89%
    Show more